Regional Weather Roundup
Issued by NWS Kansas City/Pleasant Hill, MO

Home | Current Version | Previous Version | Graphics & Text | Print | Product List | Glossary Off
Versions: 1 2 3 4 5 6 7 8 9 10 11 12 13 14 15 16 17 18 19 20 21 22 23 24 25 26 27 28 29 30 31 32 33 34 35 36 37 38 39 40 41 42 43 44 45 46 47 48 49 50

000
ASUS43 KEAX 260711
RWREAX

WEATHER ROUNDUP FOR EASTERN KANSAS AND NORTHWEST MISSOURI
NATIONAL WEATHER SERVICE KANSAS CITY/PLEASANT HILL MO
100 AM CST FRI DEC 26 2014

KSZ040-057-103>105-MOZ028-029-037-043-260800-
...KANSAS CITY METROPOLITAN AREA...

CITY           SKY/WX    TMP DP  RH WIND       PRES   REMARKS
K.C. INTL      PTCLDY    45  31  58 S17       29.80S
K.C. DOWNTOWN  PTCLDY    48  30  49 S8        29.82R
LEES SUMMIT    MOCLDY    46  30  53 S13       29.83R
OLATHE - IXD   MOCLDY    47  31  53 S16       29.80S
OLATHE - OJC   MOCLDY    47  31  53 S10G21    29.80S
LAWRENCE       PTCLDY    47  30  51 S6        29.80R

$$

MOZ001>008-011>017-020>025-030>033-038>040-044>046-053-054-260800-
...NORTHERN AND CENTRAL MISSOURI...

CITY           SKY/WX    TMP DP  RH WIND       PRES   REMARKS
ST. JOSEPH     PTCLDY    45  32  60 S10       29.79R
MOSBY          SUNNY     45  32  61 S10       29.82F
WARRENSBURG    MOCLDY    45  32  61 S13       29.85S
WHITEMAN AFB   MOCLDY    45  31  58 S17       29.86R
CLINTON        PTCLDY    45  32  61 S13G18    29.88S
SEDALIA        PTCLDY    45  31  58 S13       29.88S
WARSAW         NOT AVBL
MARSHALL       PTCLDY    45  34  65 S9        29.88F
CHILLICOTHE      N/A     41  30  65 SE7       29.85S
MOBERLY        CLEAR     43  30  61 S10       29.90S
KIRKSVILLE     PTCLDY    35  31  85 S12       29.88S WCI  27

$$

MOZ041-047>049-056>058-063>065-088>090-097-260800-
...EASTERN AND SOUTHERN MISSOURI...

CITY           SKY/WX    TMP DP  RH WIND       PRES   REMARKS
ST. LOUIS INTL PTCLDY    43  34  70 SE6       30.02S
SPIRIT OF STL  CLEAR     43  34  70 CALM      30.00R
COLUMBIA       PTCLDY    43  32  65 S14       29.92S
JEFFERSON CITY PTCLDY    44  32  62 SE8       29.95S
MEXICO         CLEAR     41  36  81 S8        29.93S
HANNIBAL       CLEAR     41  32  70 SE8       29.93F
ROLLA          CLEAR     42  34  73 S15       29.95R WCI  34
LEBANON        MOCLDY    41  32  70 S13       29.95R WCI  34
OSAGE BEACH    PTCLDY    45  30  57 S9        29.93S
SPRINGFIELD    MOCLDY    44  31  60 S16       29.92R
BRANSON        CLOUDY    45  32  61 S8        29.97S
NEVADA         PTCLDY    39  32  75 S9        29.88S WCI  33
JOPLIN         PTCLDY    48  31  51 S22       29.89S
WEST PLAINS    PTCLDY    39  34  82 S6        30.02S WCI  35

$$

IAZ060-094-KSZ022-034>040-054-083-096-NEZ052-066-093-260800-
...KANSAS...SOUTHEAST NEBRASKA AND IOWA...

CITY           SKY/WX    TMP DP  RH WIND       PRES   REMARKS
TOPEKA         CLEAR     47  31  53 VRB3      29.79R
MANHATTAN      CLEAR     40  29  64 CALM      29.74S
EMPORIA        PTCLDY    46  30  53 S18       29.76S
CHANUTE        PTCLDY    47  32  56 S16       29.83S
WICHITA        MOCLDY    45  30  55 S12       29.75S
OMAHA          CLEAR     31  29  92 N12       29.77R WCI  22
LINCOLN        CLEAR     31  28  89 N12       29.78R WCI  22
FALLS CITY     CLEAR     36  28  73 S8        29.75R WCI  30
LAMONI         PTCLDY    38  30  73 S9        29.79S WCI  31
DES MOINES     MOCLDY    39  31  72 S9        29.78S WCI  33

$$




USA.gov is the U.S. government's official web portal to all federal, state and local government web resources and services.